This demonstration page uses our WeatherBlox Daily Observations layout. Learn more.

Left ArrowRight Arrow

39.01783, -85.05884

Hourly Observations for September 18, 2020

Temp ( °F °C ) Dew Point ( °F °C ) Humidity (%) Winds ( mph kmh ) Pressure ( in mb ) Visibility ( mi km ) Precip ( " mm )
12:52 am 00:52 Mostly Clear 63 17.2 49 9.4 60 60 NE 14 22 30.04 1017 10 16 0.00 0.00
1:52 am 01:52 Mostly Cloudy 62 16.7 48 8.9 60 60 NNE 13 20 30.04 1017 10 16 0.00 0.00
2:52 am 02:52 Mostly Clear 61 16.1 48 8.9 63 63 N 8 13 30.04 1017 10 16 0.00 0.00
3:52 am 03:52 Clear 58 14.4 50 10 75 75 N 9 15 30.05 1018 10 16 0.00 0.00
4:52 am 04:52 Partly Cloudy 57 13.9 49 9.4 74 74 N 9 15 30.06 1018 10 16 0.00 0.00
5:52 am 05:52 Mostly Cloudy 56 13.3 48 8.9 75 75 N 12 19 30.07 1018 10 16 0.00 0.00
6:52 am 06:52 Partly Cloudy 55 12.8 48 8.9 77 77 N 13 20 30.11 1020 10 16 0.00 0.00
7:52 am 07:52 Mostly Sunny 55 12.8 46 7.8 72 72 NNE 16 26 30.13 1020 10 16 0.00 0.00
8:52 am 08:52 Mostly Sunny 56 13.3 46 7.8 70 70 NNE 16 26 30.15 1021 10 16 0.00 0.00
9:52 am 09:52 Mostly Sunny 59 15 45 7.2 60 60 NNE 15 24 30.17 1022 10 16 0.00 0.00
10:52 am 10:52 Mostly Sunny 61 16.1 44 6.7 54 54 N 15 24 30.20 1023 10 16 0.00 0.00
11:52 am 11:52 Mostly Sunny 63 17.2 41 5 45 45 NNE 17 28 30.21 1023 10 16 0.00 0.00
12:52 pm 12:52 Mostly Sunny 65 18.3 39 3.9 39 39 NNE 18 30 30.19 1023 10 16 0.00 0.00
1:52 pm 13:52 Mostly Sunny 66 18.9 38 3.3 36 36 N 16 26 30.19 1023 10 16 0.00 0.00
2:52 pm 14:52 Mostly Sunny 68 20 37 2.8 32 32 N 15 24 30.18 1022 10 16 0.00 0.00
3:52 pm 15:52 Mostly Sunny 68 20 37 2.8 32 32 N 9 15 30.18 1022 10 16 0.00 0.00
4:52 pm 16:52 Sunny 68 20 38 3.3 33 33 NNE 13 20 30.18 1022 10 16 0.00 0.00
5:52 pm 17:52 Sunny 67 19.4 37 2.8 33 33 NNE 13 20 30.19 1022 10 16 0.00 0.00
6:52 pm 18:52 Sunny 65 18.3 37 2.8 36 36 NNE 13 20 30.20 1023 10 16 0.00 0.00
7:52 pm 19:52 Clear 62 16.7 38 3.3 41 41 NNE 12 19 30.21 1023 10 16 0.00 0.00
8:52 pm 20:52 Clear 61 16.1 37 2.8 41 41 NNE 14 22 30.23 1024 10 16 0.00 0.00
9:52 pm 21:52 Clear 59 15 38 3.3 46 46 NE 15 24 30.25 1024 10 16 0.00 0.00
10:52 pm 22:52 Clear 57 13.9 37 2.8 47 47 NE 16 26 30.27 1025 10 16 0.00 0.00
11:52 pm 23:52 Clear 56 13.3 38 3.3 51 51 NE 12 19 30.28 1026 10 16 0.00 0.00

Powered by AerisWeather